Flag for U.S.A. Weather past 2 weeks in Prudhoe Bay, Alaska, U.S.A.

Now
21 °F

Mostly cloudy.


Feels Like: 9 °F
Forecast: 9 / 29 °F
Wind: 13 mph from Northwest

Location: Deadhorse Airport


UV Index: 0 (Low)

Visibility: 10 mi


Pressure: 29.93 "Hg

Humidity: 92%

Dew point: 19 °F

Location of Prudhoe BayLocation

Historic Weather in Prudhoe Bay

°F

Prudhoe Bay temperature yesterday

Maximum temperature yesterday: 31 °F (at 1:53 PM)
Minimum temperature yesterday: 13 °F (at 12:53 AM)
Average temperature yesterday: 22 °F

Past Weeks' High & Low Weather Summary

 TemperatureHumidityPressure
High31 °F (Apr 14, 11:53 AM)96% (Apr 3, 3:53 AM)30.36 "Hg (Apr 3, 3:53 AM)
Low-29 °F (Apr 10, 6:53 AM)66% (Apr 13, 9:53 AM)29.76 "Hg (Apr 5, 6:53 AM)
Average-5 °F79%29.98 "Hg
* Reported Apr 1 10:53 AM — Apr 16 10:01 AM, Prudhoe Bay, Weather by CustomWeather, © 2014

Note: Actual official high and low records may vary slightly from our data, if they occured in-between our weather recording intervals... More about our weather records

Advertising

Historic Weather Conditions — Data for Previous 24 hours

 ConditionsComfort  
Time TempWeatherWind HumidityBarometerVisibility
10:01 AM
Apr 16
20 °FIce fog.10 mph96%29.92 "Hg2 mi
8:53 AM17 °FIce fog.12 mph95%29.92 "Hg1 mi
7:53 AM9 °FIce fog.6 mph96%29.91 "Hg1 mi
7:01 AM8 °FIce fog.7 mph91%29.90 "Hg2 mi
5:53 AM6 °FIce fog.9 mph87%29.90 "Hg0 mi
4:53 AM6 °FLight snow. Ice fog.9 mph91%29.90 "Hg0 mi
3:59 AM5 °FIce fog.6 mph91%29.89 "Hg0 mi
3:00 AM5 °FIce fog.8 mph95%29.89 "Hg0 mi
1:53 AM10 °FPassing clouds.No wind96%29.88 "Hg8 mi
12:53 AM12 °FPassing clouds.5 mph88%29.88 "Hg10 mi
11:53 PM
Apr 15
16 °FClear.5 mph84%29.88 "Hg10 mi
10:53 PM17 °FPassing clouds.5 mph92%29.88 "Hg10 mi
9:53 PM16 °FPassing clouds.6 mph92%29.88 "Hg10 mi
8:53 PM24 °FSunny.No wind88%29.87 "Hg10 mi
6:53 PM26 °FSunny.5 mph92%29.88 "Hg10 mi
5:53 PM27 °FSunny.5 mph92%29.89 "Hg10 mi
4:53 PM28 °FSunny.7 mph85%29.89 "Hg10 mi
3:53 PM30 °FSunny.3 mph82%29.89 "Hg10 mi
2:53 PM30 °FSunny.6 mph82%29.90 "Hg10 mi
1:53 PM31 °FSunny.No wind76%29.90 "Hg10 mi
12:53 PM28 °FSunny.No wind81%29.90 "Hg10 mi
11:53 AM25 °FScattered clouds.5 mph85%29.90 "Hg10 mi
Weather by CustomWeather, © 2014

See weather overview